<?xml version='1.0' encoding='UTF-8'?>
<gpx xmlns="http://www.topografix.com/GPX/1/1" creator="www.balnam.be" version="1.1" xmlns:xsi="http://www.w3.org/2001/XMLSchema-instance" xsi:schemaLocation="http://www.topografix.com/GPX/1/1 http://www.topografix.com/GPX/1/1/gpx.xsd">
<trk>
<name>hbmlg1</name>
<cmt>v</cmt>
<desc>Leugnies Chemin n°1 </desc>
<link href="https://chemins.be/leugnies/chemin/1"/><trkseg>
<trkpt lat="50.221871" lon="4.193151"><time>2026-05-02T17:43:26Z</time></trkpt>
<trkpt lat="50.221723" lon="4.192756"><time>2026-05-02T17:53:26Z</time></trkpt>
<trkpt lat="50.221193" lon="4.192657"><time>2026-05-02T18:03:26Z</time></trkpt>
</trkseg></trk>
<trk>
<name>hbmlg1</name>
<cmt>q</cmt>
<desc>Leugnies Chemin n°1 </desc>
<link href="https://chemins.be/leugnies/chemin/1"/><trkseg>
<trkpt lat="50.221193" lon="4.192657"><time>2026-05-02T18:03:26Z</time></trkpt>
<trkpt lat="50.220902" lon="4.193130"><time>2026-05-02T18:13:26Z</time></trkpt>
</trkseg>
</trk>
<trk>
<name>hbmlg11</name>
<cmt>v</cmt>
<desc>Leugnies Chemin n°11 Rue Alfred Rousseaux</desc>
<link href="https://chemins.be/leugnies/chemin/11"/><trkseg>
<trkpt lat="50.217691" lon="4.202590"><time>2026-05-02T17:43:26Z</time></trkpt>
<trkpt lat="50.218913" lon="4.201577"><time>2026-05-02T17:53:26Z</time></trkpt>
<trkpt lat="50.219295" lon="4.198983"><time>2026-05-02T18:03:26Z</time></trkpt>
<trkpt lat="50.219302" lon="4.197218"><time>2026-05-02T18:13:26Z</time></trkpt>
</trkseg>
</trk>
<trk>
<name>hbmlg13</name>
<cmt>v</cmt>
<desc>Leugnies Chemin n°13 </desc>
<link href="https://chemins.be/leugnies/chemin/13"/><trkseg>
<trkpt lat="50.220907" lon="4.177104"><time>2026-05-02T17:43:26Z</time></trkpt>
<trkpt lat="50.220169" lon="4.176686"><time>2026-05-02T17:53:26Z</time></trkpt>
<trkpt lat="50.217847" lon="4.175631"><time>2026-05-02T18:03:26Z</time></trkpt>
<trkpt lat="50.215195" lon="4.175459"><time>2026-05-02T18:13:26Z</time></trkpt>
</trkseg>
</trk>
<trk>
<name>hbmlg15</name>
<cmt>q</cmt>
<desc>Leugnies Chemin n°15 </desc>
<link href="https://chemins.be/leugnies/chemin/15"/><trkseg>
<trkpt lat="50.224041" lon="4.212711"><time>2026-05-02T17:43:26Z</time></trkpt>
<trkpt lat="50.225056" lon="4.215444"><time>2026-05-02T17:53:26Z</time></trkpt>
<trkpt lat="50.225724" lon="4.216323"><time>2026-05-02T18:03:26Z</time></trkpt>
</trkseg>
</trk>
<trk>
<name>hbmlg16</name>
<cmt>s</cmt>
<desc>Leugnies Chemin n°16 </desc>
<link href="https://chemins.be/leugnies/chemin/16"/><trkseg>
<trkpt lat="50.212405" lon="4.193003"><time>2026-05-02T17:43:26Z</time></trkpt>
<trkpt lat="50.211993" lon="4.190539"><time>2026-05-02T17:53:26Z</time></trkpt>
</trkseg>
</trk>
<trk>
<name>hbmlg17</name>
<cmt>r</cmt>
<desc>Leugnies Chemin n°17 Rue du Pavillon</desc>
<link href="https://chemins.be/leugnies/chemin/17"/><trkseg>
<trkpt lat="50.215508" lon="4.198562"><time>2026-05-02T17:43:26Z</time></trkpt>
<trkpt lat="50.214437" lon="4.198962"><time>2026-05-02T17:53:26Z</time></trkpt>
<trkpt lat="50.212231" lon="4.197303"><time>2026-05-02T18:03:26Z</time></trkpt>
</trkseg></trk>
<trk>
<name>hbmlg17</name>
<cmt>v</cmt>
<desc>Leugnies Chemin n°17 Rue du Pavillon</desc>
<link href="https://chemins.be/leugnies/chemin/17"/><trkseg>
<trkpt lat="50.212231" lon="4.197303"><time>2026-05-02T18:03:26Z</time></trkpt>
<trkpt lat="50.211560" lon="4.196643"><time>2026-05-02T18:13:26Z</time></trkpt>
<trkpt lat="50.210786" lon="4.196082"><time>2026-05-02T18:23:26Z</time></trkpt>
</trkseg>
</trk>
<trk>
<name>hbmlg19</name>
<cmt>d</cmt>
<desc>Leugnies Chemin n°19 </desc>
<link href="https://chemins.be/leugnies/chemin/19"/><trkseg>
<trkpt lat="50.227167" lon="4.199883"><time>2026-05-02T17:43:26Z</time></trkpt>
<trkpt lat="50.226854" lon="4.199819"><time>2026-05-02T17:53:26Z</time></trkpt>
</trkseg></trk>
<trk>
<name>hbmlg19</name>
<cmt>q</cmt>
<desc>Leugnies Chemin n°19 </desc>
<link href="https://chemins.be/leugnies/chemin/19"/><trkseg>
<trkpt lat="50.226854" lon="4.199819"><time>2026-05-02T17:53:26Z</time></trkpt>
<trkpt lat="50.226542" lon="4.199838"><time>2026-05-02T18:03:26Z</time></trkpt>
<trkpt lat="50.226088" lon="4.200181"><time>2026-05-02T18:13:26Z</time></trkpt>
<trkpt lat="50.225573" lon="4.201554"><time>2026-05-02T18:23:26Z</time></trkpt>
</trkseg>
</trk>
<trk>
<name>hbmlg2</name>
<cmt>v</cmt>
<desc>Leugnies Chemin n°2 Rue Emile Culot</desc>
<link href="https://chemins.be/leugnies/chemin/2"/><trkseg>
<trkpt lat="50.236894" lon="4.201500"><time>2026-05-02T17:43:26Z</time></trkpt>
<trkpt lat="50.236946" lon="4.200519"><time>2026-05-02T17:53:26Z</time></trkpt>
<trkpt lat="50.236900" lon="4.199552"><time>2026-05-02T18:03:26Z</time></trkpt>
<trkpt lat="50.236827" lon="4.198963"><time>2026-05-02T18:13:26Z</time></trkpt>
<trkpt lat="50.236744" lon="4.197786"><time>2026-05-02T18:23:26Z</time></trkpt>
<trkpt lat="50.236794" lon="4.195151"><time>2026-05-02T18:33:26Z</time></trkpt>
<trkpt lat="50.236577" lon="4.194198"><time>2026-05-02T18:43:26Z</time></trkpt>
<trkpt lat="50.236836" lon="4.192767"><time>2026-05-02T18:53:26Z</time></trkpt>
<trkpt lat="50.237175" lon="4.191491"><time>2026-05-02T19:03:26Z</time></trkpt>
</trkseg>
</trk>
<trk>
<name>hbmlg20</name>
<cmt>r</cmt>
<desc>Leugnies Chemin n°20 </desc>
<link href="https://chemins.be/leugnies/chemin/20"/><trkseg>
<trkpt lat="50.237188" lon="4.191488"><time>2026-05-02T17:43:26Z</time></trkpt>
<trkpt lat="50.236707" lon="4.190040"><time>2026-05-02T17:53:26Z</time></trkpt>
<trkpt lat="50.236637" lon="4.189138"><time>2026-05-02T18:03:26Z</time></trkpt>
<trkpt lat="50.232611" lon="4.182225"><time>2026-05-02T18:13:26Z</time></trkpt>
<trkpt lat="50.232096" lon="4.181342"><time>2026-05-02T18:23:26Z</time></trkpt>
<trkpt lat="50.230431" lon="4.181228"><time>2026-05-02T18:33:26Z</time></trkpt>
<trkpt lat="50.229223" lon="4.180312"><time>2026-05-02T18:43:26Z</time></trkpt>
<trkpt lat="50.227525" lon="4.179611"><time>2026-05-02T18:53:26Z</time></trkpt>
<trkpt lat="50.224844" lon="4.178596"><time>2026-05-02T19:03:26Z</time></trkpt>
</trkseg>
</trk>
<trk>
<name>hbmlg21</name>
<cmt>v</cmt>
<desc>Leugnies Chemin n°21 </desc>
<link href="https://chemins.be/leugnies/chemin/21"/><trkseg>
<trkpt lat="50.225740" lon="4.193310"><time>2026-05-02T17:43:26Z</time></trkpt>
<trkpt lat="50.225114" lon="4.190692"><time>2026-05-02T17:53:26Z</time></trkpt>
<trkpt lat="50.224785" lon="4.187688"><time>2026-05-02T18:03:26Z</time></trkpt>
<trkpt lat="50.224746" lon="4.185971"><time>2026-05-02T18:13:26Z</time></trkpt>
<trkpt lat="50.224807" lon="4.185654"><time>2026-05-02T18:23:26Z</time></trkpt>
</trkseg>
</trk>
<trk>
<name>hbmlg22</name>
<cmt>d</cmt>
<desc>Leugnies Chemin n°22 </desc>
<link href="https://chemins.be/leugnies/chemin/22"/><trkseg>
<trkpt lat="50.223998" lon="4.195353"><time>2026-05-02T17:43:26Z</time></trkpt>
<trkpt lat="50.223164" lon="4.195133"><time>2026-05-02T17:53:26Z</time></trkpt>
<trkpt lat="50.222433" lon="4.194441"><time>2026-05-02T18:03:26Z</time></trkpt>
</trkseg>
</trk>
<trk>
<name>hbmlg23</name>
<cmt>v</cmt>
<desc>Leugnies Chemin n°23 </desc>
<link href="https://chemins.be/leugnies/chemin/23"/><trkseg>
<trkpt lat="50.239850" lon="4.206292"><time>2026-05-02T17:43:26Z</time></trkpt>
<trkpt lat="50.240133" lon="4.205167"><time>2026-05-02T17:53:26Z</time></trkpt>
<trkpt lat="50.240215" lon="4.204257"><time>2026-05-02T18:03:26Z</time></trkpt>
<trkpt lat="50.240402" lon="4.203489"><time>2026-05-02T18:13:26Z</time></trkpt>
</trkseg>
</trk>
<trk>
<name>hbmlg24</name>
<cmt>r</cmt>
<desc>Leugnies Chemin n°24 Rue Moulineau</desc>
<link href="https://chemins.be/leugnies/chemin/24"/><trkseg>
<trkpt lat="50.228224" lon="4.199848"><time>2026-05-02T17:43:26Z</time></trkpt>
<trkpt lat="50.228676" lon="4.199845"><time>2026-05-02T17:53:26Z</time></trkpt>
</trkseg></trk>
<trk>
<name>hbmlg24</name>
<cmt>v</cmt>
<desc>Leugnies Chemin n°24 Rue Moulineau</desc>
<link href="https://chemins.be/leugnies/chemin/24"/><trkseg>
<trkpt lat="50.228676" lon="4.199845"><time>2026-05-02T17:53:26Z</time></trkpt>
<trkpt lat="50.229145" lon="4.199897"><time>2026-05-02T18:03:26Z</time></trkpt>
<trkpt lat="50.229892" lon="4.200168"><time>2026-05-02T18:13:26Z</time></trkpt>
<trkpt lat="50.230452" lon="4.200768"><time>2026-05-02T18:23:26Z</time></trkpt>
</trkseg>
</trk>
<trk>
<name>hbmlg25</name>
<cmt>v</cmt>
<desc>Leugnies Chemin n°25 </desc>
<link href="https://chemins.be/leugnies/chemin/25"/><trkseg>
<trkpt lat="50.220558" lon="4.207695"><time>2026-05-02T17:43:26Z</time></trkpt>
<trkpt lat="50.219811" lon="4.211111"><time>2026-05-02T17:53:26Z</time></trkpt>
<trkpt lat="50.219613" lon="4.213428"><time>2026-05-02T18:03:26Z</time></trkpt>
<trkpt lat="50.219312" lon="4.214216"><time>2026-05-02T18:13:26Z</time></trkpt>
<trkpt lat="50.219009" lon="4.215008"><time>2026-05-02T18:23:26Z</time></trkpt>
<trkpt lat="50.218460" lon="4.216862"><time>2026-05-02T18:33:26Z</time></trkpt>
</trkseg>
</trk>
<trk>
<name>hbmlg27</name>
<cmt>r</cmt>
<desc>Leugnies Chemin n°27 Rue du Pavillon</desc>
<link href="https://chemins.be/leugnies/chemin/27"/><trkseg>
<trkpt lat="50.210394" lon="4.198800"><time>2026-05-02T17:43:26Z</time></trkpt>
<trkpt lat="50.210866" lon="4.198328"><time>2026-05-02T17:53:26Z</time></trkpt>
<trkpt lat="50.211223" lon="4.197341"><time>2026-05-02T18:03:26Z</time></trkpt>
<trkpt lat="50.211699" lon="4.197283"><time>2026-05-02T18:13:26Z</time></trkpt>
<trkpt lat="50.212225" lon="4.197269"><time>2026-05-02T18:23:26Z</time></trkpt>
</trkseg>
</trk>
<trk>
<name>hbmlg28</name>
<cmt>v</cmt>
<desc>Leugnies Chemin n°28 </desc>
<link href="https://chemins.be/leugnies/chemin/28"/><trkseg>
<trkpt lat="50.228420" lon="4.194726"><time>2026-05-02T17:43:26Z</time></trkpt>
<trkpt lat="50.228579" lon="4.192846"><time>2026-05-02T17:53:26Z</time></trkpt>
<trkpt lat="50.228502" lon="4.190203"><time>2026-05-02T18:03:26Z</time></trkpt>
<trkpt lat="50.228755" lon="4.188151"><time>2026-05-02T18:13:26Z</time></trkpt>
</trkseg>
</trk>
<trk>
<name>hbmlg29</name>
<cmt>q</cmt>
<desc>Leugnies Sentier n°29 </desc>
<link href="https://chemins.be/leugnies/sentier/29"/><trkseg>
<trkpt lat="50.225062" lon="4.195940"><time>2026-05-02T17:43:26Z</time></trkpt>
<trkpt lat="50.225762" lon="4.196095"><time>2026-05-02T17:53:26Z</time></trkpt>
<trkpt lat="50.225830" lon="4.196258"><time>2026-05-02T18:03:26Z</time></trkpt>
<trkpt lat="50.226083" lon="4.196400"><time>2026-05-02T18:13:26Z</time></trkpt>
<trkpt lat="50.228344" lon="4.195490"><time>2026-05-02T18:23:26Z</time></trkpt>
<trkpt lat="50.229068" lon="4.195005"><time>2026-05-02T18:33:26Z</time></trkpt>
</trkseg></trk>
<trk>
<name>hbmlg29</name>
<cmt>r</cmt>
<desc>Leugnies Sentier n°29 </desc>
<link href="https://chemins.be/leugnies/sentier/29"/><trkseg>
<trkpt lat="50.229068" lon="4.195005"><time>2026-05-02T18:33:26Z</time></trkpt>
<trkpt lat="50.229421" lon="4.195275"><time>2026-05-02T18:43:26Z</time></trkpt>
<trkpt lat="50.230400" lon="4.194603"><time>2026-05-02T18:53:26Z</time></trkpt>
<trkpt lat="50.231059" lon="4.193859"><time>2026-05-02T19:03:26Z</time></trkpt>
<trkpt lat="50.231892" lon="4.193659"><time>2026-05-02T19:13:26Z</time></trkpt>
</trkseg></trk>
<trk>
<name>hbmlg29</name>
<cmt>q</cmt>
<desc>Leugnies Sentier n°29 </desc>
<link href="https://chemins.be/leugnies/sentier/29"/><trkseg>
<trkpt lat="50.231892" lon="4.193659"><time>2026-05-02T19:13:26Z</time></trkpt>
<trkpt lat="50.234372" lon="4.190655"><time>2026-05-02T19:23:26Z</time></trkpt>
<trkpt lat="50.235836" lon="4.187651"><time>2026-05-02T19:33:26Z</time></trkpt>
</trkseg>
</trk>
<trk>
<name>hbmlg30</name>
<cmt>q</cmt>
<desc>Leugnies Sentier n°30 Preaux / Chemin de Beaumont à Reugnies</desc>
<link href="https://chemins.be/leugnies/sentier/30"/><trkseg>
<trkpt lat="50.226080" lon="4.196395"><time>2026-05-02T17:43:26Z</time></trkpt>
<trkpt lat="50.227657" lon="4.197721"><time>2026-05-02T17:53:26Z</time></trkpt>
<trkpt lat="50.228321" lon="4.198520"><time>2026-05-02T18:03:26Z</time></trkpt>
<trkpt lat="50.228919" lon="4.198524"><time>2026-05-02T18:13:26Z</time></trkpt>
<trkpt lat="50.229364" lon="4.198760"><time>2026-05-02T18:23:26Z</time></trkpt>
<trkpt lat="50.228988" lon="4.199052"><time>2026-05-02T18:33:26Z</time></trkpt>
<trkpt lat="50.228955" lon="4.199799"><time>2026-05-02T18:43:26Z</time></trkpt>
</trkseg></trk>
<trk>
<name>hbmlg30</name>
<cmt>v</cmt>
<desc>Leugnies Sentier n°30 Preaux / Chemin de Beaumont à Reugnies</desc>
<link href="https://chemins.be/leugnies/sentier/30"/><trkseg>
<trkpt lat="50.228955" lon="4.199799"><time>2026-05-02T18:43:26Z</time></trkpt>
<trkpt lat="50.229943" lon="4.200202"><time>2026-05-02T18:53:26Z</time></trkpt>
<trkpt lat="50.230464" lon="4.200760"><time>2026-05-02T19:03:26Z</time></trkpt>
</trkseg></trk>
<trk>
<name>hbmlg30</name>
<cmt>q</cmt>
<desc>Leugnies Sentier n°30 Preaux / Chemin de Beaumont à Reugnies</desc>
<link href="https://chemins.be/leugnies/sentier/30"/><trkseg>
<trkpt lat="50.230464" lon="4.200760"><time>2026-05-02T19:03:26Z</time></trkpt>
<trkpt lat="50.231957" lon="4.200056"><time>2026-05-02T19:13:26Z</time></trkpt>
<trkpt lat="50.234746" lon="4.199644"><time>2026-05-02T19:23:26Z</time></trkpt>
</trkseg></trk>
<trk>
<name>hbmlg30</name>
<cmt>r</cmt>
<desc>Leugnies Sentier n°30 Preaux / Chemin de Beaumont à Reugnies</desc>
<link href="https://chemins.be/leugnies/sentier/30"/><trkseg>
<trkpt lat="50.234746" lon="4.199644"><time>2026-05-02T19:23:26Z</time></trkpt>
<trkpt lat="50.235616" lon="4.200451"><time>2026-05-02T19:33:26Z</time></trkpt>
</trkseg></trk>
<trk>
<name>hbmlg30</name>
<cmt>q</cmt>
<desc>Leugnies Sentier n°30 Preaux / Chemin de Beaumont à Reugnies</desc>
<link href="https://chemins.be/leugnies/sentier/30"/><trkseg>
<trkpt lat="50.235616" lon="4.200451"><time>2026-05-02T19:33:26Z</time></trkpt>
<trkpt lat="50.236897" lon="4.199537"><time>2026-05-02T19:43:26Z</time></trkpt>
</trkseg></trk>
<trk>
<name>hbmlg30</name>
<cmt>v</cmt>
<desc>Leugnies Sentier n°30 Preaux / Chemin de Beaumont à Reugnies</desc>
<link href="https://chemins.be/leugnies/sentier/30"/><trkseg>
<trkpt lat="50.236897" lon="4.199537"><time>2026-05-02T19:43:26Z</time></trkpt>
<trkpt lat="50.237244" lon="4.199136"><time>2026-05-02T19:53:26Z</time></trkpt>
<trkpt lat="50.237669" lon="4.199007"><time>2026-05-02T20:03:26Z</time></trkpt>
<trkpt lat="50.238527" lon="4.198235"><time>2026-05-02T20:13:26Z</time></trkpt>
<trkpt lat="50.239172" lon="4.198632"><time>2026-05-02T20:23:26Z</time></trkpt>
<trkpt lat="50.239460" lon="4.198846"><time>2026-05-02T20:33:26Z</time></trkpt>
<trkpt lat="50.239496" lon="4.198554"><time>2026-05-02T20:43:26Z</time></trkpt>
<trkpt lat="50.239905" lon="4.198563"><time>2026-05-02T20:53:26Z</time></trkpt>
</trkseg>
</trk>
<trk>
<name>hbmlg31</name>
<cmt>q</cmt>
<desc>Leugnies Sentier n°31 </desc>
<link href="https://chemins.be/leugnies/sentier/31"/><trkseg>
<trkpt lat="50.239730" lon="4.198606"><time>2026-05-02T17:43:26Z</time></trkpt>
<trkpt lat="50.239675" lon="4.199387"><time>2026-05-02T17:53:26Z</time></trkpt>
<trkpt lat="50.239153" lon="4.202468"><time>2026-05-02T18:03:26Z</time></trkpt>
<trkpt lat="50.238906" lon="4.204897"><time>2026-05-02T18:13:26Z</time></trkpt>
</trkseg>
</trk>
<trk>
<name>hbmlg32</name>
<cmt>q</cmt>
<desc>Leugnies Sentier n°32 </desc>
<link href="https://chemins.be/leugnies/sentier/32"/><trkseg>
<trkpt lat="50.225367" lon="4.199012"><time>2026-05-02T17:43:26Z</time></trkpt>
<trkpt lat="50.226318" lon="4.199929"><time>2026-05-02T17:53:26Z</time></trkpt>
<trkpt lat="50.227244" lon="4.201077"><time>2026-05-02T18:03:26Z</time></trkpt>
<trkpt lat="50.228461" lon="4.203402"><time>2026-05-02T18:13:26Z</time></trkpt>
<trkpt lat="50.231077" lon="4.205827"><time>2026-05-02T18:23:26Z</time></trkpt>
<trkpt lat="50.232373" lon="4.207029"><time>2026-05-02T18:33:26Z</time></trkpt>
<trkpt lat="50.233656" lon="4.207447"><time>2026-05-02T18:43:26Z</time></trkpt>
</trkseg>
</trk>
<trk>
<name>hbmlg33</name>
<cmt>q</cmt>
<desc>Leugnies Sentier n°33 Rue Ernest Mathy</desc>
<link href="https://chemins.be/leugnies/sentier/33"/><trkseg>
<trkpt lat="50.222515" lon="4.199409"><time>2026-05-02T17:43:26Z</time></trkpt>
<trkpt lat="50.223381" lon="4.201154"><time>2026-05-02T17:53:26Z</time></trkpt>
<trkpt lat="50.223643" lon="4.201414"><time>2026-05-02T18:03:26Z</time></trkpt>
</trkseg></trk>
<trk>
<name>hbmlg33</name>
<cmt>v</cmt>
<desc>Leugnies Sentier n°33 Rue Ernest Mathy</desc>
<link href="https://chemins.be/leugnies/sentier/33"/><trkseg>
<trkpt lat="50.223643" lon="4.201414"><time>2026-05-02T18:03:26Z</time></trkpt>
<trkpt lat="50.223760" lon="4.201672"><time>2026-05-02T18:13:26Z</time></trkpt>
</trkseg></trk>
<trk>
<name>hbmlg33</name>
<cmt>q</cmt>
<desc>Leugnies Sentier n°33 Rue Ernest Mathy</desc>
<link href="https://chemins.be/leugnies/sentier/33"/><trkseg>
<trkpt lat="50.223760" lon="4.201672"><time>2026-05-02T18:13:26Z</time></trkpt>
<trkpt lat="50.225001" lon="4.202844"><time>2026-05-02T18:23:26Z</time></trkpt>
<trkpt lat="50.225509" lon="4.204121"><time>2026-05-02T18:33:26Z</time></trkpt>
</trkseg></trk>
<trk>
<name>hbmlg33</name>
<cmt>r</cmt>
<desc>Leugnies Sentier n°33 Rue Ernest Mathy</desc>
<link href="https://chemins.be/leugnies/sentier/33"/><trkseg>
<trkpt lat="50.225509" lon="4.204121"><time>2026-05-02T18:33:26Z</time></trkpt>
<trkpt lat="50.225599" lon="4.208778"><time>2026-05-02T18:43:26Z</time></trkpt>
</trkseg></trk>
<trk>
<name>hbmlg33</name>
<cmt>q</cmt>
<desc>Leugnies Sentier n°33 Rue Ernest Mathy</desc>
<link href="https://chemins.be/leugnies/sentier/33"/><trkseg>
<trkpt lat="50.225599" lon="4.208778"><time>2026-05-02T18:43:26Z</time></trkpt>
<trkpt lat="50.227964" lon="4.214845"><time>2026-05-02T18:53:26Z</time></trkpt>
</trkseg>
</trk>
<trk>
<name>hbmlg34</name>
<cmt>q</cmt>
<desc>Leugnies Sentier n°34 Rue Elie Deroche</desc>
<link href="https://chemins.be/leugnies/sentier/34"/><trkseg>
<trkpt lat="50.225467" lon="4.201232"><time>2026-05-02T17:43:26Z</time></trkpt>
<trkpt lat="50.224653" lon="4.201892"><time>2026-05-02T17:53:26Z</time></trkpt>
<trkpt lat="50.223785" lon="4.201640"><time>2026-05-02T18:03:26Z</time></trkpt>
</trkseg></trk>
<trk>
<name>hbmlg34</name>
<cmt>v</cmt>
<desc>Leugnies Sentier n°34 Rue Elie Deroche</desc>
<link href="https://chemins.be/leugnies/sentier/34"/><trkseg>
<trkpt lat="50.223785" lon="4.201640"><time>2026-05-02T18:03:26Z</time></trkpt>
<trkpt lat="50.223651" lon="4.201420"><time>2026-05-02T18:13:26Z</time></trkpt>
</trkseg></trk>
<trk>
<name>hbmlg34</name>
<cmt>q</cmt>
<desc>Leugnies Sentier n°34 Rue Elie Deroche</desc>
<link href="https://chemins.be/leugnies/sentier/34"/><trkseg>
<trkpt lat="50.223651" lon="4.201420"><time>2026-05-02T18:13:26Z</time></trkpt>
<trkpt lat="50.223538" lon="4.201346"><time>2026-05-02T18:23:26Z</time></trkpt>
<trkpt lat="50.223387" lon="4.201156"><time>2026-05-02T18:33:26Z</time></trkpt>
<trkpt lat="50.223394" lon="4.200138"><time>2026-05-02T18:43:26Z</time></trkpt>
<trkpt lat="50.223847" lon="4.199516"><time>2026-05-02T18:53:26Z</time></trkpt>
</trkseg>
</trk>
<trk>
<name>hbmlg35</name>
<cmt>q</cmt>
<desc>Leugnies Sentier n°35 </desc>
<link href="https://chemins.be/leugnies/sentier/35"/><trkseg>
<trkpt lat="50.219293" lon="4.214325"><time>2026-05-02T17:43:26Z</time></trkpt>
<trkpt lat="50.219250" lon="4.217274"><time>2026-05-02T17:53:26Z</time></trkpt>
<trkpt lat="50.218668" lon="4.223076"><time>2026-05-02T18:03:26Z</time></trkpt>
<trkpt lat="50.217939" lon="4.225419"><time>2026-05-02T18:13:26Z</time></trkpt>
</trkseg>
</trk>
<trk>
<name>hbmlg36</name>
<cmt>q</cmt>
<desc>Leugnies Sentier n°36 </desc>
<link href="https://chemins.be/leugnies/sentier/36"/><trkseg>
<trkpt lat="50.216848" lon="4.223576"><time>2026-05-02T17:43:26Z</time></trkpt>
<trkpt lat="50.217429" lon="4.224105"><time>2026-05-02T17:53:26Z</time></trkpt>
<trkpt lat="50.218038" lon="4.225208"><time>2026-05-02T18:03:26Z</time></trkpt>
<trkpt lat="50.219172" lon="4.227261"><time>2026-05-02T18:13:26Z</time></trkpt>
</trkseg>
</trk>
<trk>
<name>hbmlg37</name>
<cmt>v</cmt>
<desc>Leugnies Sentier n°37 Rue Alfred Rousseaux</desc>
<link href="https://chemins.be/leugnies/sentier/37"/><trkseg>
<trkpt lat="50.224166" lon="4.197467"><time>2026-05-02T17:43:26Z</time></trkpt>
<trkpt lat="50.223358" lon="4.198282"><time>2026-05-02T17:53:26Z</time></trkpt>
</trkseg></trk>
<trk>
<name>hbmlg37</name>
<cmt>r</cmt>
<desc>Leugnies Sentier n°37 Rue Alfred Rousseaux</desc>
<link href="https://chemins.be/leugnies/sentier/37"/><trkseg>
<trkpt lat="50.223358" lon="4.198282"><time>2026-05-02T17:53:26Z</time></trkpt>
<trkpt lat="50.222524" lon="4.199406"><time>2026-05-02T18:03:26Z</time></trkpt>
<trkpt lat="50.222469" lon="4.199098"><time>2026-05-02T18:13:26Z</time></trkpt>
</trkseg></trk>
<trk>
<name>hbmlg37</name>
<cmt>q</cmt>
<desc>Leugnies Sentier n°37 Rue Alfred Rousseaux</desc>
<link href="https://chemins.be/leugnies/sentier/37"/><trkseg>
<trkpt lat="50.222469" lon="4.199098"><time>2026-05-02T18:13:26Z</time></trkpt>
<trkpt lat="50.222056" lon="4.199002"><time>2026-05-02T18:23:26Z</time></trkpt>
<trkpt lat="50.221221" lon="4.200000"><time>2026-05-02T18:33:26Z</time></trkpt>
</trkseg></trk>
<trk>
<name>hbmlg37</name>
<cmt>v</cmt>
<desc>Leugnies Sentier n°37 Rue Alfred Rousseaux</desc>
<link href="https://chemins.be/leugnies/sentier/37"/><trkseg>
<trkpt lat="50.221221" lon="4.200000"><time>2026-05-02T18:33:26Z</time></trkpt>
<trkpt lat="50.218994" lon="4.201491"><time>2026-05-02T18:43:26Z</time></trkpt>
<trkpt lat="50.217668" lon="4.202642"><time>2026-05-02T18:53:26Z</time></trkpt>
</trkseg></trk>
<trk>
<name>hbmlg37</name>
<cmt>q</cmt>
<desc>Leugnies Sentier n°37 Rue Alfred Rousseaux</desc>
<link href="https://chemins.be/leugnies/sentier/37"/><trkseg>
<trkpt lat="50.217668" lon="4.202642"><time>2026-05-02T18:53:26Z</time></trkpt>
<trkpt lat="50.211613" lon="4.209223"><time>2026-05-02T19:03:26Z</time></trkpt>
<trkpt lat="50.208701" lon="4.211991"><time>2026-05-02T19:13:26Z</time></trkpt>
</trkseg>
</trk>
<trk>
<name>hbmlg38</name>
<cmt>q</cmt>
<desc>Leugnies Sentier n°38 </desc>
<link href="https://chemins.be/leugnies/sentier/38"/><trkseg>
<trkpt lat="50.224183" lon="4.196249"><time>2026-05-02T17:43:26Z</time></trkpt>
<trkpt lat="50.223356" lon="4.195852"><time>2026-05-02T17:53:26Z</time></trkpt>
<trkpt lat="50.222313" lon="4.196069"><time>2026-05-02T18:03:26Z</time></trkpt>
<trkpt lat="50.222239" lon="4.196457"><time>2026-05-02T18:13:26Z</time></trkpt>
<trkpt lat="50.222070" lon="4.196269"><time>2026-05-02T18:23:26Z</time></trkpt>
</trkseg></trk>
<trk>
<name>hbmlg38</name>
<cmt>r</cmt>
<desc>Leugnies Sentier n°38 </desc>
<link href="https://chemins.be/leugnies/sentier/38"/><trkseg>
<trkpt lat="50.222070" lon="4.196269"><time>2026-05-02T18:23:26Z</time></trkpt>
<trkpt lat="50.221494" lon="4.196355"><time>2026-05-02T18:33:26Z</time></trkpt>
</trkseg></trk>
<trk>
<name>hbmlg38</name>
<cmt>v</cmt>
<desc>Leugnies Sentier n°38 </desc>
<link href="https://chemins.be/leugnies/sentier/38"/><trkseg>
<trkpt lat="50.221494" lon="4.196355"><time>2026-05-02T18:33:26Z</time></trkpt>
<trkpt lat="50.220182" lon="4.196974"><time>2026-05-02T18:43:26Z</time></trkpt>
</trkseg></trk>
<trk>
<name>hbmlg38</name>
<cmt>q</cmt>
<desc>Leugnies Sentier n°38 </desc>
<link href="https://chemins.be/leugnies/sentier/38"/><trkseg>
<trkpt lat="50.220182" lon="4.196974"><time>2026-05-02T18:43:26Z</time></trkpt>
<trkpt lat="50.219404" lon="4.196130"><time>2026-05-02T18:53:26Z</time></trkpt>
<trkpt lat="50.218433" lon="4.194971"><time>2026-05-02T19:03:26Z</time></trkpt>
<trkpt lat="50.217536" lon="4.193612"><time>2026-05-02T19:13:26Z</time></trkpt>
<trkpt lat="50.216090" lon="4.192582"><time>2026-05-02T19:23:26Z</time></trkpt>
<trkpt lat="50.215074" lon="4.190751"><time>2026-05-02T19:33:26Z</time></trkpt>
<trkpt lat="50.214323" lon="4.190122"><time>2026-05-02T19:43:26Z</time></trkpt>
<trkpt lat="50.213728" lon="4.189192"><time>2026-05-02T19:53:26Z</time></trkpt>
<trkpt lat="50.212547" lon="4.188205"><time>2026-05-02T20:03:26Z</time></trkpt>
</trkseg>
</trk>
<trk>
<name>hbmlg38bis</name>
<cmt>q</cmt>
<desc>Leugnies Sentier n°38bis </desc>
<link href="https://chemins.be/leugnies/sentier/38bis"/><trkseg>
<trkpt lat="50.223967" lon="4.196925"><time>2026-05-02T17:43:26Z</time></trkpt>
<trkpt lat="50.223342" lon="4.195873"><time>2026-05-02T17:53:26Z</time></trkpt>
</trkseg>
</trk>
<trk>
<name>hbmlg39</name>
<cmt>q</cmt>
<desc>Leugnies Sentier n°39 </desc>
<link href="https://chemins.be/leugnies/sentier/39"/><trkseg>
<trkpt lat="50.214587" lon="4.199000"><time>2026-05-02T17:43:26Z</time></trkpt>
<trkpt lat="50.216596" lon="4.200860"><time>2026-05-02T17:53:26Z</time></trkpt>
</trkseg>
</trk>
<trk>
<name>hbmlg4</name>
<cmt>v</cmt>
<desc>Leugnies Chemin n°4 </desc>
<link href="https://chemins.be/leugnies/chemin/4"/><trkseg>
<trkpt lat="50.220961" lon="4.177131"><time>2026-05-02T17:43:26Z</time></trkpt>
<trkpt lat="50.219900" lon="4.177388"><time>2026-05-02T17:53:26Z</time></trkpt>
<trkpt lat="50.217634" lon="4.177061"><time>2026-05-02T18:03:26Z</time></trkpt>
<trkpt lat="50.216780" lon="4.177218"><time>2026-05-02T18:13:26Z</time></trkpt>
<trkpt lat="50.214894" lon="4.178305"><time>2026-05-02T18:23:26Z</time></trkpt>
<trkpt lat="50.214669" lon="4.178460"><time>2026-05-02T18:33:26Z</time></trkpt>
</trkseg>
</trk>
<trk>
<name>hbmlg40</name>
<cmt>q</cmt>
<desc>Leugnies Sentier n°40 Rue Taille des Marchés</desc>
<link href="https://chemins.be/leugnies/sentier/40"/><trkseg>
<trkpt lat="50.224149" lon="4.195635"><time>2026-05-02T17:43:26Z</time></trkpt>
<trkpt lat="50.224283" lon="4.195468"><time>2026-05-02T17:53:26Z</time></trkpt>
<trkpt lat="50.223988" lon="4.194320"><time>2026-05-02T18:03:26Z</time></trkpt>
<trkpt lat="50.222935" lon="4.193881"><time>2026-05-02T18:13:26Z</time></trkpt>
<trkpt lat="50.222345" lon="4.193217"><time>2026-05-02T18:23:26Z</time></trkpt>
</trkseg></trk>
<trk>
<name>hbmlg40</name>
<cmt>r</cmt>
<desc>Leugnies Sentier n°40 Rue Taille des Marchés</desc>
<link href="https://chemins.be/leugnies/sentier/40"/><trkseg>
<trkpt lat="50.222345" lon="4.193217"><time>2026-05-02T18:23:26Z</time></trkpt>
<trkpt lat="50.221920" lon="4.193146"><time>2026-05-02T18:33:26Z</time></trkpt>
<trkpt lat="50.221726" lon="4.190748"><time>2026-05-02T18:43:26Z</time></trkpt>
<trkpt lat="50.220926" lon="4.187207"><time>2026-05-02T18:53:26Z</time></trkpt>
</trkseg></trk>
<trk>
<name>hbmlg40</name>
<cmt>v</cmt>
<desc>Leugnies Sentier n°40 Rue Taille des Marchés</desc>
<link href="https://chemins.be/leugnies/sentier/40"/><trkseg>
<trkpt lat="50.220926" lon="4.187207"><time>2026-05-02T18:53:26Z</time></trkpt>
<trkpt lat="50.220489" lon="4.185821"><time>2026-05-02T19:03:26Z</time></trkpt>
<trkpt lat="50.219465" lon="4.180921"><time>2026-05-02T19:13:26Z</time></trkpt>
</trkseg></trk>
<trk>
<name>hbmlg40</name>
<cmt>q</cmt>
<desc>Leugnies Sentier n°40 Rue Taille des Marchés</desc>
<link href="https://chemins.be/leugnies/sentier/40"/><trkseg>
<trkpt lat="50.219465" lon="4.180921"><time>2026-05-02T19:13:26Z</time></trkpt>
<trkpt lat="50.217780" lon="4.178069"><time>2026-05-02T19:23:26Z</time></trkpt>
<trkpt lat="50.217454" lon="4.177156"><time>2026-05-02T19:33:26Z</time></trkpt>
<trkpt lat="50.215268" lon="4.174127"><time>2026-05-02T19:43:26Z</time></trkpt>
</trkseg>
</trk>
<trk>
<name>hbmlg41</name>
<cmt>r</cmt>
<desc>Leugnies Sentier n°41 Rue Adolphe Hubert</desc>
<link href="https://chemins.be/leugnies/sentier/41"/><trkseg>
<trkpt lat="50.223974" lon="4.195393"><time>2026-05-02T17:43:26Z</time></trkpt>
<trkpt lat="50.223792" lon="4.194862"><time>2026-05-02T17:53:26Z</time></trkpt>
</trkseg></trk>
<trk>
<name>hbmlg41</name>
<cmt>q</cmt>
<desc>Leugnies Sentier n°41 Rue Adolphe Hubert</desc>
<link href="https://chemins.be/leugnies/sentier/41"/><trkseg>
<trkpt lat="50.223792" lon="4.194862"><time>2026-05-02T17:53:26Z</time></trkpt>
<trkpt lat="50.223737" lon="4.194739"><time>2026-05-02T18:03:26Z</time></trkpt>
<trkpt lat="50.223943" lon="4.194310"><time>2026-05-02T18:13:26Z</time></trkpt>
<trkpt lat="50.223998" lon="4.193650"><time>2026-05-02T18:23:26Z</time></trkpt>
<trkpt lat="50.223369" lon="4.183491"><time>2026-05-02T18:33:26Z</time></trkpt>
<trkpt lat="50.222857" lon="4.182212"><time>2026-05-02T18:43:26Z</time></trkpt>
<trkpt lat="50.222638" lon="4.180787"><time>2026-05-02T18:53:26Z</time></trkpt>
<trkpt lat="50.221397" lon="4.178710"><time>2026-05-02T19:03:26Z</time></trkpt>
<trkpt lat="50.220672" lon="4.178427"><time>2026-05-02T19:13:26Z</time></trkpt>
<trkpt lat="50.219897" lon="4.177646"><time>2026-05-02T19:23:26Z</time></trkpt>
</trkseg>
</trk>
<trk>
<name>hbmlg42</name>
<cmt>v</cmt>
<desc>Leugnies Sentier n°42 </desc>
<link href="https://chemins.be/leugnies/sentier/42"/><trkseg>
<trkpt lat="50.219501" lon="4.180963"><time>2026-05-02T17:43:26Z</time></trkpt>
<trkpt lat="50.220047" lon="4.178929"><time>2026-05-02T17:53:26Z</time></trkpt>
<trkpt lat="50.219891" lon="4.177416"><time>2026-05-02T18:03:26Z</time></trkpt>
</trkseg>
</trk>
<trk>
<name>hbmlg43</name>
<cmt>v</cmt>
<desc>Leugnies Sentier n°43 </desc>
<link href="https://chemins.be/leugnies/sentier/43"/><trkseg>
<trkpt lat="50.221180" lon="4.188237"><time>2026-05-02T17:43:26Z</time></trkpt>
<trkpt lat="50.221486" lon="4.187556"><time>2026-05-02T17:53:26Z</time></trkpt>
<trkpt lat="50.221605" lon="4.186768"><time>2026-05-02T18:03:26Z</time></trkpt>
</trkseg></trk>
<trk>
<name>hbmlg43</name>
<cmt>q</cmt>
<desc>Leugnies Sentier n°43 </desc>
<link href="https://chemins.be/leugnies/sentier/43"/><trkseg>
<trkpt lat="50.221605" lon="4.186768"><time>2026-05-02T18:03:26Z</time></trkpt>
<trkpt lat="50.221985" lon="4.184263"><time>2026-05-02T18:13:26Z</time></trkpt>
<trkpt lat="50.222304" lon="4.182461"><time>2026-05-02T18:23:26Z</time></trkpt>
<trkpt lat="50.222743" lon="4.181551"><time>2026-05-02T18:33:26Z</time></trkpt>
</trkseg>
</trk>
<trk>
<name>hbmlg44</name>
<cmt>v</cmt>
<desc>Leugnies Chemin n°44 </desc>
<link href="https://chemins.be/leugnies/chemin/44"/><trkseg>
<trkpt lat="50.225522" lon="4.208771"><time>2026-05-02T17:43:26Z</time></trkpt>
<trkpt lat="50.224583" lon="4.212264"><time>2026-05-02T17:53:26Z</time></trkpt>
</trkseg>
</trk>
<trk>
<name>hbmlg5</name>
<cmt>r</cmt>
<desc>Leugnies Chemin n°5 Septaury</desc>
<link href="https://chemins.be/leugnies/chemin/5"/><trkseg>
<trkpt lat="50.213842" lon="4.218689"><time>2026-05-02T17:43:26Z</time></trkpt>
<trkpt lat="50.213594" lon="4.216488"><time>2026-05-02T17:53:26Z</time></trkpt>
<trkpt lat="50.213841" lon="4.214292"><time>2026-05-02T18:03:26Z</time></trkpt>
<trkpt lat="50.213077" lon="4.211546"><time>2026-05-02T18:13:26Z</time></trkpt>
<trkpt lat="50.211850" lon="4.210086"><time>2026-05-02T18:23:26Z</time></trkpt>
<trkpt lat="50.211635" lon="4.209293"><time>2026-05-02T18:33:26Z</time></trkpt>
<trkpt lat="50.210486" lon="4.201525"><time>2026-05-02T18:43:26Z</time></trkpt>
<trkpt lat="50.210368" lon="4.198747"><time>2026-05-02T18:53:26Z</time></trkpt>
</trkseg></trk>
<trk>
<name>hbmlg5</name>
<cmt>v</cmt>
<desc>Leugnies Chemin n°5 Septaury</desc>
<link href="https://chemins.be/leugnies/chemin/5"/><trkseg>
<trkpt lat="50.210368" lon="4.198747"><time>2026-05-02T18:53:26Z</time></trkpt>
<trkpt lat="50.210376" lon="4.197648"><time>2026-05-02T19:03:26Z</time></trkpt>
</trkseg>
</trk>
<trk>
<name>hbmlg8</name>
<cmt>v</cmt>
<desc>Leugnies Chemin n°8 Rue Elie Deroche</desc>
<link href="https://chemins.be/leugnies/chemin/8"/><trkseg>
<trkpt lat="50.224071" lon="4.199975"><time>2026-05-02T17:43:26Z</time></trkpt>
<trkpt lat="50.223685" lon="4.200523"><time>2026-05-02T17:53:26Z</time></trkpt>
<trkpt lat="50.223533" lon="4.200874"><time>2026-05-02T18:03:26Z</time></trkpt>
<trkpt lat="50.223560" lon="4.201238"><time>2026-05-02T18:13:26Z</time></trkpt>
<trkpt lat="50.223677" lon="4.201448"><time>2026-05-02T18:23:26Z</time></trkpt>
<trkpt lat="50.223822" lon="4.201686"><time>2026-05-02T18:33:26Z</time></trkpt>
<trkpt lat="50.223903" lon="4.201882"><time>2026-05-02T18:43:26Z</time></trkpt>
<trkpt lat="50.224056" lon="4.202400"><time>2026-05-02T18:53:26Z</time></trkpt>
<trkpt lat="50.224147" lon="4.202862"><time>2026-05-02T19:03:26Z</time></trkpt>
<trkpt lat="50.224122" lon="4.203941"><time>2026-05-02T19:13:26Z</time></trkpt>
<trkpt lat="50.223935" lon="4.205287"><time>2026-05-02T19:23:26Z</time></trkpt>
<trkpt lat="50.223818" lon="4.205792"><time>2026-05-02T19:33:26Z</time></trkpt>
<trkpt lat="50.223720" lon="4.206171"><time>2026-05-02T19:43:26Z</time></trkpt>
<trkpt lat="50.223748" lon="4.206521"><time>2026-05-02T19:53:26Z</time></trkpt>
<trkpt lat="50.224337" lon="4.210471"><time>2026-05-02T20:03:26Z</time></trkpt>
<trkpt lat="50.224565" lon="4.212348"><time>2026-05-02T20:13:26Z</time></trkpt>
<trkpt lat="50.224404" lon="4.213077"><time>2026-05-02T20:23:26Z</time></trkpt>
</trkseg>
</trk>
</gpx>